Voltar ao catálogo

FENGYUN 1C DEB

AtivoPO
NORAD 29881·DEBRIS·🇨🇳 China

Lançado May 10, 1999 de Taiyuan Satellite Launch Center

Loading…

Próximas Passagens (próximas 24 horas)

TLE

AtualizadoSource: Space-Track

Época: Sep 13, 2026, 19:53 UTC

1 29881U 99025GB  26256.82869606  .00001788  00000-0  18280-2 0  9994
2 29881  98.7320 204.7505 0291617  74.1563 342.3228 13.60532590969747

Acompanhe FENGYUN 1C DEB em tempo real com AllMySat

Download on the App Store